Location: Ammerl�gen
(47.2167°N, 9.6000°E)
Time: 04:49:12
(UTC+00:00)

CARTOSAT-1 - Pass Details

Date: 21 April 2021
Orbit: 615 x 619 km, 97.8° (Epoch: 16 May)

Event Time Altitude Azimuth Distance (km) Brightness Sun altitude
Exits shadow 20:16:54 37° 116° (ESE) 973 4.0 -17.9°
Maximum altitude 20:18:07 48° 71° (ENE) 818 3.9 -18.1°
Drops below altitude 10° 20:22:17 10° 358° (N) 1,994 6.8 -18.6°
Sets 20:24:31 0° 352° (N) 2,904 7.8 -18.9°
